Location: Waco, TX
(31.5480°N, 97.1670°W)
Time: 08:58:59
(UTC-05:00)

ISS - Pass Details

Date: 16 October 2018
Orbit: 403 x 408 km, 51.6° (Epoch: 16 October)

Event Time Altitude Azimuth Distance (km) Brightness Sun altitude
Rises 18:06:55 0° 321° (NW) 2,331 0.3 9.2°
Reaches altitude 10° 18:09:05 10° 329° (NNW) 1,468 -0.8 8.8°
Maximum altitude 18:12:13 42° 42° (NE) 596 -3.3 8.1°
Drops below altitude 10° 18:15:21 10° 115° (ESE) 1,460 -1.4 7.5°
Sets 18:17:30 0° 122° (ESE) 2,317 -0.4 7.1°
